Location: Ethel Rock
(53.4667°N, 4.5667°W)
Time: 00:52:31
(UTC+00:00)

Okean O Rocket - Pass Details

Date: 24 October 2020
Orbit: 623 x 644 km, 98.2° (Epoch: 26 November)

Event Time Altitude Azimuth Distance (km) Brightness Sun altitude
Rises 06:10:15 0° 21° (NNE) 2,919 5.2 -8.4°
Reaches altitude 10° 06:12:36 10° 30° (NNE) 2,007 4.5 -8.1°
Maximum altitude 06:16:37 35° 97° (E) 1,008 3.5 -7.5°
Drops below altitude 10° 06:20:37 10° 164° (SSE) 1,996 4.6 -6.9°
Sets 06:22:57 0° 173° (S) 2,900 5.3 -6.6°
